SHIJIAN 6 01B (SJ-6 01B)

导读

**实践六号01B(SJ-6 01B)** 是中国于北京时间2004年9月8日8时在太原卫星发射中心,由长征四号乙运载火箭发射升空的技术试验卫星,由东方红卫星公司研制,属于中国实践卫星系列。卫星运行在近地点593公里、远地点602公里的太阳同步轨道,轨道倾角97.7°,设计寿命2年,主要开展空间环境探测与航天技术试验。

Basic Information
目录编号:
28414
目录名称:
SHIJIAN 6 01B (SJ-6 01B)
国际标识:
2004-035B
轨道中心:
EARTH
卫星名称:
SHIJIAN 6 01B (SJ-6 01B)
卫星全名:
--
卫星状态:
在轨 (已飞行7992 天)
发射日期:
2004-09-08 UTC
国别 :
中国 (CN)
星等 :
--
Orbit Information
数据来源 国际轨道数据 AOE轨道数据
星历时间 2026-07-27T23:16:04+0800
7小时前
查看轨道信息
2026-07-26T02:00:00+0800
2天前
查看轨道信息
半长轴 6924.742km 6924.83km
偏心率 0.0005227 0.0005482
轨道倾角 97.605° 97.605°
近地点辐角 27.520° 30.511°
升交点赤经 225.990° 224.130°
平近点角 332.631° 186.090°
近地点 542.985km 542.896km
远地点 550.225km 550.49km
周期 95.580分钟 95.581分钟
每日圈数 15.06598 15.065695
Detailed Information
使用方式:
暂无
2D Orbit Map
3D Orbit Map
Orbit Altitude Analysis Chart
Orbit Inclination Analysis Chart
Orbit Comprehensive Analysis Chart
View Comprehensive Chart